Location: Multiple Mirror Telescope
(31.6889°N, 110.8853°W)
Time: 18:31:27
(UTC-07:00)

Hubble Space Telescope - Visible Passes

Search period start: 15 April 2026 00:00
Search period end: 25 April 2026 00:00
Orbit: 474 x 477 km, 28.5° (Epoch: 15 April)

Date Brightness Start Highest point End Pass type
(mag) Time Alt. Az. Time Alt. Az. Time Alt. Az.
15 Apr 1.6 04:54:08 22° SW 04:55:31 28° SSW 04:58:44 10° SE visible
16 Apr 1.8 04:24:59 26° S 04:24:59 26° S 04:27:35 10° SE visible
17 Apr 3.1 03:55:58 13° SE 03:55:58 13° SE 03:56:25 10° SE visible
21 Apr 2.5 20:16:14 10° SSW 20:17:48 16° S 20:17:48 16° S visible
22 Apr 2.2 19:45:03 10° SSW 19:47:38 18° SSE 19:48:56 15° SE visible
23 Apr 2.3 20:52:14 10° WSW 20:54:00 24° SW 20:54:00 24° SW visible
24 Apr 1.0 20:21:02 10° WSW 20:24:35 41° S 20:24:52 40° SSE visible
